Prox-1
1 44339U 19036A   25054.04267044  .00018595  00000-0  25789-2 0  9996
2 44339  23.9987  39.9138 0007224 293.5410  66.4327 14.76368895302320
SONATE
1 44400U 19038Q   25054.57321072  .00082798  00000-0  10053-2 0  9991
2 44400  97.7093  70.1809 0006261 278.1238  81.9308 15.60303213312896
Taurus 1
1 44530U 19059C   25054.84415492  .00015638  00000-0  30421-2 0  9998
2 44530  98.5913 189.4913 0009062 358.1753   1.9413 14.63159368288469
Duchifat 3
1 44854U 19089C   25054.76454221  .00047657  00000-0  13654-2 0  9999
2 44854  36.9484 302.4997 0007392  11.5238 348.5683 15.34916193286618
TO-108
1 44881U 19093C   25054.80175730  .00002344  00000-0  27947-3 0  9999
2 44881  97.8020 132.6520 0013189 214.1406 145.8961 14.85176291280370
FloripaSat 1
1 44885U 19093G   25054.78017796  .00012133  00000-0  10747-2 0  9993
2 44885  97.8199 142.3042 0011085 194.3601 165.7306 14.96353268280914
RS-44
1 44909U 19096E   25053.91598854  .00000014  00000-0  10628-4 0  9991
2 44909  82.5212 298.1683 0217272 184.7193 175.1864 12.79738417241041
UPMSat 2
1 46276U 20061E   25054.16328273  .00052291  00000-0  81453-3 0  9995
2 46276  97.2603 126.0892 0000539 184.9275 175.1973 15.53721320248865
SALSAT
1 46495U 20068K   25054.47845591  .00014609  00000-0  67748-3 0  9998
2 46495  97.8492  27.8639 0012784 160.1061 200.0674 15.20099837242394
CubeSX-Sirius-HSE
1 47951U 21022V   25054.78760505  .00101104  00000-0  15365-2 0  9996
2 47951  97.4330 322.3996 0005874 345.0054  15.1024 15.54192035217225
CubeSX-HSE
1 47952U 21022W   25054.82924061  .00106150  00000-0  15812-2 0  9994
2 47952  97.4325 322.6288 0005320 339.2452  20.8585 15.54728339217249
KSU-Cubesat
1 47954U 21022Y   25054.71833324  .00334631  00000-0  19342-2 0  9994
2 47954  97.4277 326.8651 0002154  70.6030 289.5469 15.77693276217226
GRBAlpha
1 47959U 21022AD  25054.79194297  .00102613  00000-0  15393-2 0  9991
2 47959  97.4315 322.7460 0005711 344.4810  15.6268 15.54545698216062
Orbicraft-Zorkiy
1 47960U 21022AE  25054.79033747  .00180286  00000-0  16936-2 0  9991
2 47960  97.4305 325.9726 0002693   2.5781 357.5492 15.66577815216930
TUBIN
1 48900U 21059X   25054.80092518  .00053690  00000-0  99861-3 0  9996
2 48900  97.6669 216.4066 0005141 269.8389  90.2272 15.48700380203606
LEDSAT
1 49069U 21073D   25054.77686806  .00058878  00000-0  12199-2 0  9995
2 49069  97.4022 133.0619 0012647 106.3295 253.9346 15.45469181195015
CUTE
1 49263U 21088D   25054.17453916  .00019569  00000-0  46246-3 0  9990
2 49263  97.4631 127.6812 0008408 266.4365  93.5920 15.41843026188004
TeikyoSat 4
1 49396U 21102B   25054.66666222  .00004935  00000-0  33426-3 0  9991
2 49396  97.4264  96.8792 0013762 132.8461 227.3926 15.06844916180598
Z-Sat
1 49399U 21102E   25054.78879928  .00008576  00000-0  48834-3 0  9990
2 49399  97.3976  99.4866 0020184 109.6665 250.6747 15.12887563180979
KOSEN 1
1 49402U 21102H   25054.69765203  .00011717  00000-0  57779-3 0  9994
2 49402  97.3885 102.0701 0018148  89.9914 270.3400 15.17931517181213
HO-113
1 50466U 21131B   25054.84928521  .00001398  00000-0  45267-3 0  9992
2 50466  98.5121 144.7451 0005225  95.6463 264.5322 14.40560885166224
IRIS-A
1 51044U 22002BN  25054.20361792  .00104734  00000-0  13099-2 0  9999
2 51044  97.3434 129.4620 0004262 210.5377 149.5632 15.59455468173125
Foresail-1
1 52766U 22057AL  25054.36512376  .00094688  00000-0  12117-2 0  9990
2 52766  97.5983 196.4492 0006820 298.6633  61.3937 15.58866171153182
SNUGLITE 2
1 52899U 22065F   25054.89061780  .00003044  00000-0  60691-3 0  9999
2 52899  98.1489 198.0315 0008554  86.7107 273.5074 14.62675601141037
IO-117
1 53106U 22080B   25051.21822557 -.00000003  00000-0  00000+0 0  9995
2 53106  70.1434 106.3440 0008542  48.0089 312.1297  6.42557744 61200
FO-118
1 54684U 22167C   25054.72586678  .00753165  24447-3  19759-2 0  9994
2 54684  97.6036 219.3119 0009877 297.6703  62.3569 15.94789698123240
SO-120
1 56992U 23084BU  25042.76759540  .17342116  26494-5  33638-3 0  9995
2 56992  97.5047 178.6720 0014759 276.3055  83.6566 16.46134597 93271
UmKA 1 (RS40S)
1 57172U 23091G   25054.82718205  .00011495  00000-0  64727-3 0  9995
2 57172  97.5756 110.8132 0014521 344.3543  15.7237 15.13302106 91476
CubeBel-2 (EU11S)
1 57175U 23091K   25054.89835037  .00016257  00000-0  84351-3 0  9994
2 57175  97.5754 111.4749 0012651 354.4853   5.6238 15.16149505 91526
VERONIKA
1 58261U 23174F   25054.76089614  .00082033  00000-0  16735-2 0  9996
2 58261  97.4269 136.6475 0006620  68.8214 291.3742 15.45887899 72210
KAFASAT
1 58317U 23174BP  25054.40292603  .00251525  00000-0  22548-2 0  9996
2 58317  97.4142 139.8049 0003506 345.0468  15.0689 15.67522123 72418
ENSO
1 58470U 23185J   25054.79159452  .00053584  00000-0  12226-2 0  9991
2 58470  97.3887 127.4809 0008964 104.7052 255.5190 15.42676373 68651
EIRSAT-1
1 58472U 23185L   25054.78727815  .00071426  00000-0  14083-2 0  9994
2 58472  97.3880 128.2083 0007699 105.0322 255.1781 15.46918736 68701
SONATE-2
1 59112U 24043Q   25054.32053668  .00028818  00000-0  98037-3 0  9997
2 59112  97.4970 183.8648 0012292 131.2174 229.0128 15.30322264 54055
MO-122
1 60209U 24125G   25054.15912724  .00025553  00000-0  85876-3 0  9995
2 60209  97.2940 267.2495 0021415 155.4262 204.8004 15.30588536 35643
GRBBeta
1 60237U 24128C   25054.48171184  .00007620  00000-0  59877-3 0  9999
2 60237  61.9922  89.0922 0041726  32.9701 327.3978 15.00978699 34269
Curium One
1 60242U 24128H   25054.19434540  .00011115  00000-0  83483-3 0  9995
2 60242  61.9825  89.6646 0042133  27.5586 332.7725 15.02332221 34234
ROBUSTA-3A
1 60243U 24128J   25054.83358290  .00012605  00000-0  95462-3 0  9999
2 60243  61.9892  87.9430 0040339  25.6961 334.6122 15.01982769 34322
CatSat
1 60246U 24125J   25054.14748879  .00015496  00000-0  56372-3 0  9997
2 60246  97.2724 267.5003 0046803 112.0374 248.5846 15.27269709 33723
HYPERVIEW-1G (RS66S)
1 61772U 24199AP  25054.78245020  .00031997  00000-0  11228-2 0  9997
2 61772  97.3723 284.1811 0014479 206.3101 153.7405 15.29261508 60751
AO-123
1 61781U 24199AY  25054.77374053  .00013947  00000-0  54334-3 0  9996
2 61781  97.3730 283.9003 0015679 208.0152 152.0244 15.25970794 60738
POEM 4 (BGS ARPIT)
1 62461U 24253C   25054.72059887  .00207122  00000-0  81533-3 0  9994
2 62461  55.2194 353.1493 0011391  82.1271 278.1074 15.85751273  8675
